Satellite-Ground Cal/Val Site Overpasses Predictions

Prediction of Satellite NPP Overpassing Cal/Val Site: Antarctic Dome C

Ground Cal/Val Site Location: Latitude: -75.10, Longitude: 123.35; Satellite-Ground Site NADIR distance within 100 km.

Table of predicted overpasses for the next 14.0 days since TLE Epoch: 3/2/2018
Interval Starting Time Ending Time Minimum Distance Time Minimum Distance (km)
1 03/05/2018 14:54:29 03/05/2018 14:54:57 03/05/2018 14:54:43 19.52
2 03/06/2018 14:35:47 03/06/2018 14:36:01 03/06/2018 14:35:54 87.28
3 03/07/2018 07:37:20 03/07/2018 07:37:47 03/07/2018 07:37:33 34.30
4 03/08/2018 07:18:35 03/08/2018 07:18:54 03/08/2018 07:18:45 75.87
5 03/10/2018 15:00:50 03/10/2018 15:01:14 03/10/2018 15:01:02 56.91
6 03/11/2018 14:42:01 03/11/2018 14:42:25 03/11/2018 14:42:13 52.16
7 03/12/2018 07:43:42 03/12/2018 07:44:03 03/12/2018 07:43:52 69.78
8 03/13/2018 07:24:50 03/13/2018 07:25:17 03/13/2018 07:25:03 38.18
9 03/15/2018 15:07:17 03/15/2018 15:07:25 03/15/2018 15:07:21 94.80


NCC Satellite Cal/Val Overpasses Prediction Service
